Weather Service Report


190 
ASUS46 KLOX 191612
RWRCA 

SOUTHERN CALIFORNIA WEATHER ROUNDUP
NATIONAL WEATHER SERVICE OXNARD CALIFORNIA
800 AM PST FRI DEC 19 2014

NOTE: "FAIR" INDICATES FEW OR NO CLOUDS BELOW 12,000 FEET WITH NO 
SIGNIFICANT WEATHER AND/OR OBSTRUCTIONS TO VISIBILITY.

  -  STATIONS PRECEEDED BY AN ASTERISK (*) ARE NOT NWS OR FAA 
     STATIONS AND ARE NOT SUBJECT TO NWS AND FAA QUALITY CONTROL.

CAZ041-042-087-191700-
LA AND ORANGE COUNTY COASTAL AREAS

  
CITY           SKY/WX    TMP DP  RH WIND       PRES   REMARKS
L.A. DOWNTOWN  SUNNY     52  44  74 CALM      30.22S                  
L.A. AIRPORT   MOSUNNY   53  44  71 VRB5      30.22F                  
LONG BEACH     SUNNY     51  47  86 CALM      30.22F                  

CITY           SKY/WX    TMP DP  RH WIND       PRES   REMARKS
AVALON           N/A     55 N/A N/A SE1         N/A                   
FULLERTON      SUNNY     50  46  86 E3        30.22S                  
HAWTHORNE      SUNNY     55  45  68 VRB3      30.23S                  
*LOS ALAMITOS  MOSUNNY   49  49  97 NE6       30.23S                  
*REDONDO BEACH   N/A     48  46  91 CALM      30.22R                  
SANTA ANA      MOSUNNY   55  46  71 E5        30.23R                  
STA MONICA APT SUNNY     53  43  68 CALM      30.22F                  
TORRANCE       MOSUNNY   52  48  87 S6        30.23F                  
*UCLA            N/A     54  43  66 N5        30.20R                  

$$

CAZ547-548-048-191700-
LA COUNTY VALLEYS AND INLAND EMPIRE

  
CITY           SKY/WX    TMP DP  RH WIND       PRES   REMARKS
BURBANK        SUNNY     48  42  80 E3        30.21F                  
VAN NUYS       SUNNY     47  43  86 S3        30.21F                  

CITY           SKY/WX    TMP DP  RH WIND       PRES   REMARKS
CORONA AIRPORT SUNNY     44  44 100 CALM      30.26R                  
*CHATSWORTH      N/A     47  44  89 CALM      30.23R                  
CHINO          MOSUNNY   46  44  93 CALM      30.26R                  
*CLAREMONT       N/A     45  42  89 CALM        N/A                   
MARCH AFB      SUNNY     42  42 100 NW3       30.24R                  
*NORTHRIDGE      N/A     45  41  87 SW2         N/A                   
ONTARIO        MOSUNNY   50  41  71 NE3       30.23R                  
*PASADENA        N/A     50  45  81 CALM        N/A                   
POMONA         SUNNY     45  41  87 CALM      30.26R                  
RIVERSIDE      SUNNY     46  40  79 E3        30.24R                  
SAN BERNARDINO MOSUNNY   41  36  81 CALM      30.24R                  
*SAN GABRIEL     N/A     50  46  84 CALM      30.22S                  
*WHITEMAN AP   NOT AVBL                                               
*WOODLAND HILL   N/A     46  43  87 NW2         N/A                   

$$

CAZ054-055-191700-
LA AND SAN BERNARDINO COUNTY MOUNTAINS

  
CITY           SKY/WX    TMP DP  RH WIND       PRES   REMARKS
*ACTON           N/A     37  35  91 N5          N/A  WCI  33          
*BIG BEAR AIRP SUNNY     23  21  93 W5        30.23S WCI  17          
*BIG PINES       N/A     36  12  37 CALM        N/A                   
*CHILAO          N/A     39  34  82 N3          N/A                   
MT WILSON NWS    N/A     36  34  93 MISG        N/A                   
SANDBERG       CLEAR     43  35  73 N5        30.21F                  
*WARM SPRINGS    N/A     46  35  66 E3          N/A                   

$$

CAZ028-029-059-060-099-191700-
ANTELOPE VALLEY AND SURROUNDING AREAS

  
CITY           SKY/WX    TMP DP  RH WIND       PRES   REMARKS
LANCASTER      SUNNY     35  33  92 E3        30.24S                  
PALMDALE       SUNNY     37  34  89 SE7       30.23S WCI  32          

CITY           SKY/WX    TMP DP  RH WIND       PRES   REMARKS
29 PALMS       PTSUNNY   38  34  85 NW5       30.31S WCI  34          
BARSTOW/DAGGET SUNNY     38  34  85 CALM      30.24R                  
BISHOP         PTCLDY    26  23  88 E3        30.22F                  
CHINA LAKE     SUNNY     36  33  89 CALM      30.25R                  
EDWARDS AFB    MOSUNNY   35  35 100 SE5       30.22S WCI  31          
MOJAVE         FAIR      39  36  87 CALM      30.23S                  
NEEDLES        MOSUNNY   49  39  68 S3        30.25S                  
VICTORVILLE      N/A     36  32  87 SW3       30.24R                  

$$

CAZ039-040-191700-
VENTURA AND SANTA BARBARA COUNTY COAST

  
CITY           SKY/WX    TMP DP  RH WIND       PRES   REMARKS
CAMARILLO      SUNNY     49  42  77 CALM      30.23R                  
NWS OXNARD       N/A     48  43  82 CALM      30.22S                  
OXNARD AIRPORT CLEAR     51  42  71 NE12      30.22R                  
*POINT MUGU    MOSUNNY   53  45  74 N6        30.23R                  
SBA APT/GOLETA MOCLDY    50  47  89 CALM      30.22R                  
*SANTA BARBARA   N/A     51  47  86 CALM      30.30S                  
*VENTURA         N/A     52  44  73 N7        30.26S                  

$$

CAZ044-045-191700-
VENTURA COUNTY VALLEYS

  
CITY           SKY/WX    TMP DP  RH WIND       PRES   REMARKS
*SIMI VALLEY     N/A     49  42  76 CALM      30.22S                  
*OJAI            N/A     45  44  95 CALM      30.22R                  
*FILLMORE        N/A     44  42  93 CALM      30.16R                  

$$

CAZ053-191700-
VENTURA COUNTY MOUNTAINS

  
CITY           SKY/WX    TMP DP  RH WIND       PRES   REMARKS
*LOCKWOOD VLY    N/A     28  27  93 MISG        N/A                   
*ROSE VALLEY     N/A     34  34 100 MISG        N/A                   

$$

CAZ034-035-036-191700-
CENTRAL COAST AND SANTA YNEZ VALLEY

  
CITY           SKY/WX    TMP DP  RH WIND       PRES   REMARKS
SAN LUIS OBISP MOCLDY    49  47  93 CALM      30.21F                  
SANTA MARIA    MOCLDY    51  46  83 SE3       30.21F                  

CITY           SKY/WX    TMP DP  RH WIND       PRES   REMARKS
*CAL POLY SLO    N/A     48  48 100 CALM        N/A                   
*LOMPOC        MOCLDY    46  43  87 E3        30.21F                  
*PISMO BEACH     N/A     51  49  92 SE1       30.22R                  
*SANTA YNEZ    FAIR      46  45  93 E9        30.21F                  

$$

CAZ037-038-051-191700-
SAN LUIS OBISPO COUNTY INTERIOR AND CUYAMA VALLEY

  
CITY           SKY/WX    TMP DP  RH WIND       PRES   REMARKS
*CUYAMA          N/A     43  41  93 CALM      30.22R                  
PASO ROBLES    CLOUDY    46  44  93 SE3       30.20F                  

$$

CAZ032-033-061-191700-
SOUTHERN DESERTS

  
CITY           SKY/WX    TMP DP  RH WIND       PRES   REMARKS
BLYTHE         MOSUNNY   48  40  73 CALM      30.25R                  
IMPERIAL       PTSUNNY   50  45  83 CALM      30.24R                  
PALM SPRINGS   SUNNY     49  40  71 NW6       30.25S                  
THERMAL        MOSUNNY   43  38  82 CALM      30.22S                  

$$

ELSEWHERE ACROSS THE WESTERN UNITED STATES AND MEXICO

  
CITY           SKY/WX    TMP DP  RH WIND       PRES   REMARKS
DENVER, CO     MOSUNNY   31  23  72 SW9       30.10R WCI  23          
GRAND CANYON,  SUNNY     22  20  92 CALM      30.25S                  
HONOLULU, HI   PTCLDY    73  63  68 NE9       30.08S                  
KAHULUI, MAUI  CLEAR     64  61  88 S5        30.08S                  
LAKE TAHOE, CA CLOUDY    41  18  39 S20G28    30.08F WCI  32          
LAS VEGAS, NV  PTSUNNY   44  36  73 SW3       30.22R                  
MAMMOTH LAKES, FAIR      19  19 100 NW5       30.18F WCI  13          
MEXICO CITY, M SUNNY     64  45  48 S3        30.35R                  
PHOENIX, AZ    MOSUNNY   51  43  74 CALM      30.23R                  
PORTLAND, OR   LGT RAIN  46  44  93 S12       29.97R                  
RENO, NV       MOCLDY    38  24  57 NE3       30.06S                  
SALT LAKE CITY PTSUNNY   35  28  75 SE13      30.19S WCI  26          
SAN DIEGO, CA  MOSUNNY   55  44  66 CALM      30.24S                  
SAN FRANCISCO, CLOUDY    57  55  93 SE6       30.12R                  
SAN JOSE, CA   CLOUDY    54  47  77 SE8       30.15R                  
SEATTLE, WA    CLOUDY    47  40  76 S10       29.88R                  
TIJUANA, MEX   MOSUNNY   52  43  71 SE6       30.24                   

$$
  
STATION/POSITION TIME  TEMP    WIND        PRES    VSBY  WAVE
                       AIR SEA DIR/SP/G                  HT/PER
                 (UTC) (F)     (DEG/KT/KT) (MB)    (MI)  (FT/S)
POINT ARGUELLO B NOT AVBL
WEST SANTA BARBA 1600   60 61  180/  2/  4 1022.2F         6/13
POINT CONCEPTION NOT AVBL
EAST SANTA BARBA NOT AVBL
SANTA MONICA BAY 1600   60 64   20/  2/  4 1023.4R         3/11

Return to Home page


Western Regional Climate Center, wrcc@dri.edu